Location: ??????????
(48.4699°N, 37.9573°E)
Time: 20:28:45
(UTC+00:00)

Meteor 2-5 Rocket - Pass Details

Date: 20 January 2021
Orbit: 833 x 911 km, 81.2° (Epoch: 02 March)

Event Time Altitude Azimuth Distance (km) Brightness Sun altitude
Rises 15:23:51 0° 199° (SSW) 3,400 7.4 -12.3°
Reaches altitude 10° 15:26:18 10° 202° (SSW) 2,460 6.7 -12.7°
Maximum altitude 15:31:49 65° 284° (WNW) 921 4.1 -13.6°
Drops below altitude 10° 15:37:20 10° 7° (N) 2,456 5.9 -14.5°
Sets 15:39:47 0° 10° (N) 3,394 6.6 -14.9°
